Погода в Монастырище

Россия / Приморский край     44°11′40″N   132°29′34″E
темп.,
°C
ветер,
м/с
пор.,
м/с
влажн.,
%
обл.,
%
осадки,
мм/ч
давл.,
гПа
погр.,
м
27 ноября, сб
сб2701:00−9зсз139499 0.1 102980
04:00−9сз129487 0.3 103067
07:00−11сз1195100 0.0 103211
10:00−8с118529 0.0 103473
13:00−4с237731 0.0 1033432
16:00−4ссв12775 0.0 1034303
19:00−9вюв11925 0.0 103510
22:00−10юв22945 0.0 103513
28 ноября, вс
вс2801:00−10юв22945 0.0 103515
04:00−11юв22945 0.0 103419
07:00−10юв22915 0.0 103326
10:00−6ююв23802 0.0 103279
13:000ю24675 0.0 1029220
16:000ю247978 0.0 1027100
19:00−3ю3483100 0.0 102641
22:00−3ю3478100 0.0 102561
29 ноября, пн
пн2901:00−3ю348623 0.0 102552
04:00−3ю359059 0.0 102472
07:00−3ююв238994 0.0 102346
10:00+2ююз3118472 0.0 1023243
13:00+3зюз3691100 0.0 1023234
16:000ссв5888100 0.0 1024466
19:00−2ссв3693100 0.0 1026246
22:00−4св3587100 0.0 1026177
30 ноября, вт
вт3001:00−5св348099 0.0 1025172
04:00−5св2281100 0.0 1023113
07:00−4св2275100 0.0 1020135
10:00−4ссв3481100 0.0 1018237
13:00−3ссв3385100 0.0 1013235
16:00−3ссв4795100 0.8 1006249
19:00−3с6997100 9.6 1001321
22:00−4с81497100 16.0 998554
1 декабря, ср
ср101:00−8ссз81495100 4.4 1000858
04:00−8ссз91495100 6.9 9991005
07:00−9ссз91595100 2.7 9991244
10:00−10ссз81495100 6.9 10001192
13:00−9сз91594100 2.9 10011063
16:00−10сз81591100 4.5 10031252
19:00−10зсз71374100 0.4 1004904
22:00−14з410785 0.4 1006192